TimeMST,TemperatureF,Dew PointF,Humidity,Sea Level PressureIn,VisibilityMPH,Wind Direction,Wind SpeedMPH,Gust SpeedMPH,PrecipitationIn,Events,Conditions,WindDirDegrees,DateUTC
12:52 AM,27.0,21.0,78,30.06,10.0,SSE,10.4,-,N/A,,Clear,150,2014-02-09 07:52:00
1:52 AM,28.0,21.9,78,30.01,10.0,SSE,13.8,-,N/A,,Partly Cloudy,150,2014-02-09 08:52:00
2:52 AM,30.0,23.0,75,30.03,10.0,SSE,8.1,-,N/A,,Mostly Cloudy,160,2014-02-09 09:52:00
3:52 AM,30.0,21.9,72,30.04,10.0,WSW,13.8,20.7,N/A,,Clear,240,2014-02-09 10:52:00
4:52 AM,26.1,19.9,78,30.04,10.0,South,8.1,-,N/A,,Clear,170,2014-02-09 11:52:00
5:52 AM,19.0,15.1,85,30.14,10.0,North,8.1,-,N/A,,Clear,350,2014-02-09 12:52:00
6:52 AM,14.0,10.9,88,30.18,10.0,NW,4.6,-,N/A,,Clear,310,2014-02-09 13:52:00
7:52 AM,15.1,10.9,84,30.21,10.0,WSW,5.8,-,N/A,,Clear,240,2014-02-09 14:52:00
8:52 AM,25.0,17.1,72,30.17,10.0,West,5.8,-,N/A,,Clear,280,2014-02-09 15:52:00
9:52 AM,34.0,23.0,64,30.11,10.0,WSW,5.8,-,N/A,,Clear,240,2014-02-09 16:52:00
10:52 AM,36.0,24.1,62,30.07,10.0,South,4.6,-,N/A,,Clear,180,2014-02-09 17:52:00
11:52 AM,42.1,26.1,53,29.98,10.0,Calm,Calm,-,N/A,,Partly Cloudy,0,2014-02-09 18:52:00
12:52 PM,44.1,27.0,51,29.93,10.0,South,3.5,-,N/A,,Partly Cloudy,170,2014-02-09 19:52:00
1:52 PM,46.0,28.0,50,29.89,10.0,Calm,Calm,-,N/A,,Mostly Cloudy,0,2014-02-09 20:52:00
2:52 PM,45.0,28.0,52,29.87,10.0,SW,5.8,-,N/A,,Mostly Cloudy,230,2014-02-09 21:52:00
3:52 PM,44.1,28.0,53,29.87,10.0,WSW,11.5,-,N/A,,Clear,250,2014-02-09 22:52:00
4:52 PM,44.1,28.0,53,29.91,10.0,NNW,3.5,-,N/A,,Scattered Clouds,340,2014-02-09 23:52:00
5:52 PM,36.0,26.1,67,30.00,10.0,Calm,Calm,-,N/A,,Scattered Clouds,0,2014-02-10 00:52:00
6:52 PM,30.9,25.0,79,30.08,10.0,NE,4.6,-,N/A,,Clear,40,2014-02-10 01:52:00
7:52 PM,30.0,25.0,82,30.09,10.0,NE,4.6,-,N/A,,Clear,40,2014-02-10 02:52:00
8:52 PM,26.1,23.0,88,30.09,10.0,Calm,Calm,-,N/A,,Clear,0,2014-02-10 03:52:00
9:52 PM,24.1,21.9,91,30.07,10.0,Calm,Calm,-,N/A,,Clear,0,2014-02-10 04:52:00
10:52 PM,23.0,21.0,92,30.06,10.0,West,5.8,-,N/A,,Clear,260,2014-02-10 05:52:00
11:52 PM,24.1,21.9,91,30.03,10.0,Calm,Calm,-,N/A,,Clear,0,2014-02-10 06:52:00